FW0267 Weather Reports


Display with metric or nautical units.
time (UTC)temp
F
wind
direction
speed
MPH
gust
MPH
rain 1hr
in
rain 24hr
in
rain mn
in
humidity
%
barometer
mb
20260902124557 0 112 0.0 2.0 0.00 0.00 0.00 1018.3
20260902124055 0 112 0.0 1.0 0.00 0.00 0.00 1018.3
20260902123552 0 112 0.0 1.0 0.00 0.00 0.00 1018.3
20260902123054 0 118 0.0 1.0 0.00 0.00 0.00 1018.3
20260902122552 0 123 0.0 1.0 0.00 0.00 0.00 1018.3
20260902122046 0 126 0.0 1.0 0.00 0.00 0.00 1018.3
20260902121549 0 126 0.0 1.0 0.00 0.00 0.00 1018.3
20260902121043 0 126 0.0 1.0 0.00 0.00 0.00 1018.2
20260902120545 0 117 0.0 1.0 0.00 0.00 0.00 1018.2
20260902120041 0 110 0.0 0.0 0.00 0.00 0.00 1018.3
20260902115543 0 110 0.0 0.0 0.00 0.00 0.00 1018.2
20260902115038 0 110 0.0 0.0 0.00 0.00 0.00 1018.2
20260902114603 0 110 0.0 1.0 0.00 0.00 0.00 1018.1
20260902114036 0 110 0.0 1.0 0.00 0.00 0.00 1018.1
20260902113533 0 113 0.0 1.0 0.00 0.00 0.00 1018.1
20260902113041 0 122 0.0 1.0 0.00 0.00 0.00 1018.2
20260902112530 0 127 0.0 1.0 0.00 0.00 0.00 1018.1
20260902112029 0 136 0.0 1.0 0.00 0.00 0.00 1018.1
20260902111527 0 122 0.0 1.0 0.00 0.00 0.00 1018.1
20260902111026 0 128 0.0 0.0 0.00 0.00 0.00 1018.0
20260902110525 0 128 0.0 0.0 0.00 0.00 0.00 1018.1
20260902110036 0 128 0.0 0.0 0.00 0.00 0.00 1018.2
20260902105525 0 128 0.0 0.0 0.00 0.00 0.00 1018.2
20260902105020 0 128 0.0 1.0 0.00 0.00 0.00 1018.0
20260902104532 0 128 0.0 1.0 0.00 0.00 0.00 1017.9
20260902104018 0 128 0.0 1.0 0.00 0.00 0.00 1017.9
20260902103516 0 134 0.0 1.0 0.00 0.00 0.00 1017.8
20260902103021 0 140 0.0 1.0 0.00 0.00 0.00 1017.8
20260902102516 0 140 0.0 2.0 0.00 0.00 0.00 1017.8
20260902102011 0 118 0.0 2.0 0.00 0.00 0.00 1017.7
20260902101509 0 114 0.0 1.0 0.00 0.00 0.00 1017.6
20260902101008 0 103 0.0 1.0 0.00 0.00 0.00 1017.6
20260902100507 0 101 0.0 0.0 0.00 0.00 0.00 1017.5
20260902100008 0 101 0.0 0.0 0.00 0.00 0.00 1017.4
20260902095505 0 101 0.0 0.0 0.00 0.00 0.00 1017.6
20260902095003 0 101 0.0 1.0 0.00 0.00 0.00 1017.4
20260902094501 0 101 0.0 1.0 0.00 0.00 0.00 1017.2
20260902094100 0 101 0.0 1.0 0.00 0.00 0.00 1017.3
20260902093557 0 102 0.0 1.0 0.00 0.00 0.00 1017.4
20260902093108 0 102 0.0 1.0 0.00 0.00 0.00 1017.4
20260902092555 0 104 0.0 1.0 0.00 0.00 0.00 1017.4
20260902092057 0 101 0.0 1.0 0.00 0.00 0.00 1017.4
20260902091556 0 106 0.0 1.0 0.00 0.00 0.00 1017.3
20260902091053 0 103 0.0 0.0 0.00 0.00 0.00 1017.3
20260902090551 0 103 0.0 0.0 0.00 0.00 0.00 1017.3
20260902090056 0 103 0.0 0.0 0.00 0.00 0.00 1017.2
20260902085547 0 103 0.0 0.0 0.00 0.00 0.00 1017.3
20260902085047 0 103 0.0 1.0 0.00 0.00 0.00 1017.3
20260902084543 0 103 0.0 1.0 0.00 0.00 0.00 1017.3
20260902084043 0 104 0.0 1.0 0.00 0.00 0.00 1017.3
20260902083539 0 104 0.0 0.0 0.00 0.00 0.00 1017.2
20260902083044 0 104 0.0 1.0 0.00 0.00 0.00 1017.2
20260902082537 0 104 0.0 1.0 0.00 0.00 0.00 1017.2
20260902082036 0 107 0.0 1.0 0.00 0.00 0.00 1017.2
20260902081541 0 105 0.0 1.0 0.00 0.00 0.00 1017.2
20260902081034 0 102 0.0 0.0 0.00 0.00 0.00 1017.1
20260902080535 0 102 0.0 0.0 0.00 0.00 0.00 1017.1
20260902080036 0 102 0.0 0.0 0.00 0.00 0.00 1017.1
20260902075533 0 102 0.0 0.0 0.00 0.00 0.00 1016.9
20260902075035 0 102 0.0 1.0 0.00 0.00 0.00 1017.0
20260902074543 0 102 0.0 1.0 0.00 0.00 0.00 1017.0
20260902074032 0 102 0.0 1.0 0.00 0.00 0.00 1017.0
20260902073530 0 103 0.0 1.0 0.00 0.00 0.00 1017.0
20260902073028 0 104 0.0 1.0 0.00 0.00 0.00 1017.0
20260902072526 0 107 0.0 1.0 0.00 0.00 0.00 1017.1
20260902072026 0 107 0.0 1.0 0.00 0.00 0.00 1017.2
20260902071525 0 107 0.0 1.0 0.00 0.00 0.00 1017.2
20260902071023 0 107 0.0 0.0 0.00 0.00 0.00 1017.1
20260902070521 0 107 0.0 1.0 0.00 0.00 0.00 1017.1
20260902070021 0 107 0.0 1.0 0.00 0.00 0.00 1017.2
20260902065519 0 105 0.0 0.0 0.00 0.00 0.00 1017.1
20260902065018 0 105 0.0 0.0 0.00 0.00 0.00 1017.1
20260902064522 0 105 0.0 1.0 0.00 0.00 0.00 1017.0
20260902064015 0 105 0.0 1.0 0.00 0.00 0.00 1016.9
20260902063512 0 105 0.0 1.0 0.00 0.00 0.00 1016.9
20260902063018 0 105 0.0 1.0 0.00 0.00 0.00 1016.9
20260902062510 0 105 0.0 1.0 0.00 0.00 0.00 1017.0
20260902062008 0 105 0.0 1.0 0.00 0.00 0.00 1017.0
20260902061516 0 109 0.0 1.0 0.00 0.00 0.00 1016.9
20260902061005 0 99 0.0 1.0 0.00 0.00 0.00 1016.8
20260902060503 0 99 0.0 1.0 0.00 0.00 0.00 1016.9
20260902060002 0 102 0.0 0.0 0.00 0.00 0.00 1016.9
20260902055503 0 102 0.0 0.0 0.00 0.00 0.00 1016.9
20260902055100 0 102 0.0 0.0 0.00 0.00 0.00 1017.0
20260902054600 0 102 0.0 1.0 0.00 0.00 0.00 1016.9
20260902054056 0 102 0.0 1.0 0.00 0.00 0.00 1017.0
20260902053555 0 116 0.0 1.0 0.00 0.00 0.00 1017.0
20260902053102 0 103 0.0 1.0 0.00 0.00 0.00 1017.0
20260902052551 0 100 0.0 1.0 0.00 0.00 0.00 1017.0
20260902052050 0 100 0.0 2.0 0.00 0.00 0.00 1017.1
20260902051554 0 101 0.0 2.0 0.00 0.00 0.00 1017.1
20260902051048 0 114 0.0 0.0 0.00 0.00 0.00 1017.2
20260902050547 0 114 0.0 1.0 0.00 0.00 0.00 1017.1
20260902050047 0 114 0.0 1.0 0.00 0.00 0.00 1017.0
20260902045543 0 117 0.0 1.0 0.00 0.00 0.00 1017.0
20260902045042 0 119 0.0 1.0 0.00 0.00 0.00 1017.0
20260902044540 0 123 0.0 1.0 0.00 0.00 0.00 1016.9
20260902044039 0 128 0.0 1.0 0.00 0.00 0.00 1016.9
20260902043538 0 128 0.0 1.0 0.00 0.00 0.00 1016.9
20260902043036 0 126 0.0 2.0 0.00 0.00 0.00 1016.9
20260902042536 0 132 0.0 2.0 0.00 0.00 0.00 1016.8
20260902042034 0 127 0.0 2.0 0.00 0.00 0.00 1016.8
20260902041536 0 140 0.0 1.0 0.00 0.00 0.00 1016.8
20260902041031 0 157 0.0 1.0 0.00 0.00 0.00 1016.7
20260902040529 0 136 0.0 1.0 0.00 0.00 0.00 1016.6
20260902040028 0 118 0.0 1.0 0.00 0.00 0.00 1016.7
20260902035526 0 118 0.0 1.0 0.00 0.00 0.00 1016.6
20260902035027 0 121 0.0 1.0 0.00 0.00 0.00 1016.6
20260902034527 0 129 0.0 1.0 0.00 0.00 0.00 1016.5
20260902034025 0 121 0.0 1.0 0.00 0.00 0.00 1016.4
20260902033521 0 131 0.0 2.0 0.00 0.00 0.00 1016.4
20260902033019 0 132 0.0 2.0 0.00 0.00 0.00 1016.2
20260902032519 0 128 1.0 2.0 0.00 0.00 0.00 1016.2
20260902032016 0 123 0.0 1.0 0.00 0.00 0.00 1016.4
20260902031517 0 124 0.0 2.0 0.00 0.00 0.00 1016.2
20260902031013 0 130 0.0 2.0 0.00 0.00 0.00 1016.1
20260902030513 0 128 0.0 2.0 0.00 0.00 0.00 1016.1
20260902030012 0 126 0.0 2.0 0.00 0.00 0.00 1016.1
20260902025510 0 126 0.0 2.0 0.00 0.00 0.00 1016.1
20260902025008 0 128 0.0 2.0 0.00 0.00 0.00 1016.1
20260902024509 0 126 0.0 1.0 0.00 0.00 0.00 1016.2
20260902024005 0 130 0.0 1.0 0.00 0.00 0.00 1016.2
20260902023503 0 124 0.0 2.0 0.00 0.00 0.00 1016.2
20260902023002 0 122 0.0 1.0 0.00 0.00 0.00 1016.1
20260902022601 0 112 0.0 1.0 0.00 0.00 0.00 1016.2
20260902022102 0 112 0.0 2.0 0.00 0.00 0.00 1016.4
20260902021558 0 105 0.0 1.0 0.00 0.00 0.00 1016.2
20260902021056 0 121 0.0 1.0 0.00 0.00 0.00 1016.3
20260902020555 0 115 0.0 1.0 0.00 0.00 0.00 1016.1
20260902020100 0 118 0.0 1.0 0.00 0.00 0.00 1016.1
20260902015553 0 124 0.0 1.0 0.00 0.00 0.00 1016.1
20260902015050 0 105 0.0 2.0 0.00 0.00 0.00 1015.9
20260902014551 0 117 0.0 2.0 0.00 0.00 0.00 1015.8
20260902014051 0 129 0.0 1.0 0.00 0.00 0.00 1015.8
20260902013546 0 127 0.0 1.0 0.00 0.00 0.00 1015.7
20260902013044 0 115 0.0 1.0 0.00 0.00 0.00 1015.8
20260902012542 0 115 0.0 1.0 0.00 0.00 0.00 1015.7
20260902012041 0 113 0.0 1.0 0.00 0.00 0.00 1015.6
20260902011540 0 109 0.0 1.0 0.00 0.00 0.00 1015.5
20260902011039 0 113 0.0 2.0 0.00 0.00 0.00 1015.6
20260902010536 0 114 0.0 2.0 0.00 0.00 0.00 1015.6
20260902010037 0 126 0.0 2.0 0.00 0.00 0.00 1015.6
20260902005534 0 110 0.0 2.0 0.00 0.00 0.00 1015.5
20260902005033 0 122 0.0 1.0 0.00 0.00 0.00 1015.5
20260902004531 0 128 0.0 2.0 0.00 0.00 0.00 1015.5
20260902004030 0 126 0.0 2.0 0.00 0.00 0.00 1015.5
20260902003528 0 123 0.0 2.0 0.00 0.00 0.00 1015.3
20260902003032 0 110 0.0 2.0 0.00 0.00 0.00 1015.3
20260902002525 0 124 0.0 1.0 0.00 0.00 0.00 1015.3
20260902002023 0 114 0.0 1.0 0.00 0.00 0.00 1015.3
20260902001539 0 34 0.0 1.0 0.00 0.00 0.00 1015.3
20260902001020 0 85 0.0 1.0 0.00 0.00 0.00 1015.3
20260902000519 0 106 0.0 1.0 0.00 0.00 0.00 1015.2
20260902000026 0 117 0.0 1.0 0.00 0.00 0.00 1015.2
20260901235516 0 104 0.0 1.0 0.00 0.00 0.00 1015.2
20260901235015 0 111 0.0 1.0 0.00 0.00 0.00 1015.2
20260901234514 0 90 0.0 2.0 0.00 0.00 0.00 1015.3
20260901234012 0 112 0.0 1.0 0.00 0.00 0.00 1015.2
20260901233611 0 115 0.0 2.0 0.00 0.00 0.00 1015.2
20260901233008 0 90 0.0 3.0 0.00 0.00 0.00 1015.3
20260901232508 0 130 1.0 3.0 0.00 0.00 0.00 1015.4
20260901232006 0 117 0.0 2.0 0.00 0.00 0.00 1015.3
20260901231506 0 117 0.0 2.0 0.00 0.00 0.00 1015.3
20260901231003 0 133 0.0 2.0 0.00 0.00 0.00 1015.4
20260901230502 0 117 0.0 1.0 0.00 0.00 0.00 1015.3
20260901230100 0 114 0.0 1.0 0.00 0.00 0.00 1015.4
20260901225558 0 114 0.0 1.0 0.00 0.00 0.00 1015.5
20260901225057 0 131 0.0 1.0 0.00 0.00 0.00 1015.6
20260901224600 0 116 0.0 1.0 0.00 0.00 0.00 1015.6
20260901224054 0 109 0.0 1.0 0.00 0.00 0.00 1015.6
20260901223556 0 122 0.0 2.0 0.00 0.00 0.00 1015.6
20260901223051 0 120 0.0 2.0 0.00 0.00 0.00 1015.6
20260901222549 0 119 0.0 2.0 0.00 0.00 0.00 1015.7
20260901222048 0 118 0.0 2.0 0.00 0.00 0.00 1015.7
20260901221547 0 107 0.0 2.0 0.00 0.00 0.00 1015.6
20260901221047 0 116 0.0 2.0 0.00 0.00 0.00 1015.7
20260901220544 0 123 0.0 2.0 0.00 0.00 0.00 1015.7
20260901220107 0 109 0.0 2.0 0.00 0.00 0.00 1015.7
20260901215542 0 113 0.0 2.0 0.00 0.00 0.00 1015.6
20260901215040 0 118 0.0 2.0 0.00 0.00 0.00 1015.7
20260901214537 0 112 0.0 2.0 0.00 0.00 0.00 1015.7
20260901214036 0 154 0.0 2.0 0.00 0.00 0.00 1015.7
20260901213536 0 130 0.0 2.0 0.00 0.00 0.00 1015.8
20260901213033 0 120 0.0 2.0 0.00 0.00 0.00 1015.8
20260901212531 0 156 0.0 2.0 0.00 0.00 0.00 1015.8
20260901212030 0 33 0.0 2.0 0.00 0.00 0.00 1015.8
20260901211536 0 23 0.0 2.0 0.00 0.00 0.00 1016.0
20260901211027 0 96 0.0 2.0 0.00 0.00 0.00 1015.9
20260901210526 0 53 0.0 2.0 0.00 0.00 0.00 1016.0
20260901210024 0 10 0.0 2.0 0.00 0.00 0.00 1015.9
20260901205526 0 163 0.0 2.0 0.00 0.00 0.00 1016.0
20260901205021 0 12 0.0 2.0 0.00 0.00 0.00 1016.0
20260901204524 0 88 0.0 2.0 0.00 0.00 0.00 1016.1
20260901204019 0 115 0.0 3.0 0.00 0.00 0.00 1016.1
20260901203517 0 99 0.0 3.0 0.00 0.00 0.00 1016.1
20260901203021 0 64 0.0 3.0 0.00 0.00 0.00 1016.2
20260901202513 0 103 0.0 2.0 0.00 0.00 0.00 1016.2
20260901202012 0 119 0.0 3.0 0.00 0.00 0.00 1016.3
20260901201511 0 12 0.0 3.0 0.00 0.00 0.00 1016.4
20260901201010 0 49 1.0 2.0 0.00 0.00 0.00 1016.4
20260901200512 0 5 0.0 2.0 0.00 0.00 0.00 1016.3
20260901200009 0 100 1.0 2.0 0.00 0.00 0.00 1016.4
20260901195505 0 138 1.0 2.0 0.00 0.00 0.00 1016.5
20260901195004 0 107 0.0 3.0 0.00 0.00 0.00 1016.4
20260901194502 0 5 1.0 3.0 0.00 0.00 0.00 1016.4
20260901194002 0 47 0.0 3.0 0.00 0.00 0.00 1016.5
20260901193559 0 120 1.0 3.0 0.00 0.00 0.00 1016.5
20260901193107 0 49 1.0 3.0 0.00 0.00 0.00 1016.5
20260901192556 0 42 0.0 3.0 0.00 0.00 0.00 1016.6
20260901192057 0 100 0.0 3.0 0.00 0.00 0.00 1016.6
20260901191553 0 350 1.0 2.0 0.00 0.00 0.00 1016.7
20260901191053 0 133 0.0 2.0 0.00 0.00 0.00 1016.7
20260901190550 0 127 0.0 2.0 0.00 0.00 0.00 1016.8
20260901190048 0 338 0.0 2.0 0.00 0.00 0.00 1017.0
20260901185546 0 355 1.0 3.0 0.00 0.00 0.00 1017.0
20260901185045 0 12 1.0 3.0 0.00 0.00 0.00 1017.1
20260901184545 0 19 1.0 4.0 0.00 0.00 0.00 1017.1
20260901184043 0 80 1.0 4.0 0.00 0.00 0.00 1017.1
20260901183541 0 48 1.0 3.0 0.00 0.00 0.00 1017.1
20260901183040 0 20 1.0 3.0 0.00 0.00 0.00 1017.2
20260901182539 0 126 1.0 2.0 0.00 0.00 0.00 1017.1
20260901182039 0 146 1.0 3.0 0.00 0.00 0.00 1017.0
20260901181541 0 350 0.0 3.0 0.00 0.00 0.00 1017.0
20260901181037 0 83 0.0 3.0 0.00 0.00 0.00 1017.0
20260901180535 0 143 1.0 2.0 0.00 0.00 0.00 1016.9
20260901180034 0 117 0.0 2.0 0.00 0.00 0.00 1016.9
20260901175532 0 118 0.0 3.0 0.00 0.00 0.00 1016.8
20260901175031 0 134 1.0 3.0 0.00 0.00 0.00 1016.8
20260901174530 0 144 1.0 3.0 0.00 0.00 0.00 1016.9
20260901174029 0 5 1.0 2.0 0.00 0.00 0.00 1017.0
20260901173529 0 80 0.0 3.0 0.00 0.00 0.00 1017.0
20260901173025 0 26 1.0 3.0 0.00 0.00 0.00 1017.0
20260901172525 0 346 1.0 3.0 0.00 0.00 0.00 1017.0
20260901172023 0 109 0.0 2.0 0.00 0.00 0.00 1016.9
20260901171522 0 35 1.0 3.0 0.00 0.00 0.00 1016.9
20260901171021 0 355 1.0 3.0 0.00 0.00 0.00 1017.0
20260901170519 0 119 1.0 3.0 0.00 0.00 0.00 1017.1
20260901170049 0 114 0.0 3.0 0.00 0.00 0.00 1017.1
20260901165515 0 346 1.0 3.0 0.00 0.00 0.00 1017.1
20260901165014 0 170 1.0 3.0 0.00 0.00 0.00 1017.1
20260901164514 0 59 1.0 3.0 0.00 0.00 0.00 1017.2
20260901164011 0 98 0.0 4.0 0.00 0.00 0.00 1017.3
20260901163510 0 355 0.0 3.0 0.00 0.00 0.00 1017.4
20260901163016 0 15 0.0 3.0 0.00 0.00 0.00 1017.4
20260901162507 0 130 1.0 3.0 0.00 0.00 0.00 1017.5
20260901162006 0 126 0.0 2.0 0.00 0.00 0.00 1017.5
20260901161504 0 75 0.0 2.0 0.00 0.00 0.00 1017.6
20260901161005 0 123 0.0 2.0 0.00 0.00 0.00 1017.7
20260901160502 0 126 0.0 2.0 0.00 0.00 0.00 1017.9
20260901160101 0 105 0.0 3.0 0.00 0.00 0.00 1017.9
20260901155558 0 45 1.0 3.0 0.00 0.00 0.00 1017.9
20260901155057 0 154 0.0 2.0 0.00 0.00 0.00 1017.9
20260901154606 0 111 0.0 2.0 0.00 0.00 0.00 1018.1
20260901154054 0 119 0.0 1.0 0.00 0.00 0.00 1018.1
20260901153555 0 130 0.0 1.0 0.00 0.00 0.00 1018.1
20260901153051 0 127 0.0 2.0 0.00 0.00 0.00 1018.2
20260901152549 0 158 0.0 2.0 0.00 0.00 0.00 1018.2
20260901152048 0 143 0.0 2.0 0.00 0.00 0.00 1018.3
20260901151554 0 149 0.0 2.0 0.00 0.00 0.00 1018.3
20260901151046 0 150 0.0 1.0 0.00 0.00 0.00 1018.2
20260901150546 0 141 0.0 1.0 0.00 0.00 0.00 1018.3
20260901150058 0 146 0.0 1.0 0.00 0.00 0.00 1018.3
20260901145541 0 156 0.0 1.0 0.00 0.00 0.00 1018.3
20260901145039 0 148 0.0 1.0 0.00 0.00 0.00 1018.5
20260901144544 0 123 0.0 1.0 0.00 0.00 0.00 1018.5
20260901144040 0 128 0.0 2.0 0.00 0.00 0.00 1018.5
20260901143537 0 140 0.0 2.0 0.00 0.00 0.00 1018.5
20260901143035 0 129 0.0 1.0 0.00 0.00 0.00 1018.5
20260901142534 0 130 0.0 1.0 0.00 0.00 0.00 1018.4
20260901142032 0 141 0.0 1.0 0.00 0.00 0.00 1018.4
20260901141531 0 138 0.0 1.0 0.00 0.00 0.00 1018.5
20260901141032 0 90 0.0 2.0 0.00 0.00 0.00 1018.4
20260901140527 0 20 0.0 2.0 0.00 0.00 0.00 1018.4
20260901140026 0 101 0.0 2.0 0.00 0.00 0.00 1018.3
20260901135525 0 120 0.0 1.0 0.00 0.00 0.00 1018.4
20260901135023 0 138 0.0 1.0 0.00 0.00 0.00 1018.4
20260901134521 0 115 0.0 1.0 0.00 0.00 0.00 1018.4
20260901134021 0 128 0.0 1.0 0.00 0.00 0.00 1018.3
20260901133519 0 126 0.0 0.0 0.00 0.00 0.00 1018.5
20260901133018 0 126 0.0 2.0 0.00 0.00 0.00 1018.5
20260901132516 0 126 0.0 2.0 0.00 0.00 0.00 1018.6
20260901132014 0 125 0.0 1.0 0.00 0.00 0.00 1018.5
20260901131520 0 119 0.0 1.0 0.00 0.00 0.00 1018.6
20260901131012 0 113 0.0 1.0 0.00 0.00 0.00 1018.6
20260901130511 0 128 0.0 1.0 0.00 0.00 0.00 1018.6
20260901130009 0 126 0.0 1.0 0.00 0.00 0.00 1018.7
20260901125507 0 128 0.0 1.0 0.00 0.00 0.00 1018.7
20260901125006 0 130 0.0 0.0 0.00 0.00 0.00 1018.7